Showing default

PORCUPINE 1, 1272

Orbit data source: Space-Track

PORCUPINE 1, 1272 is a payload satellite owned by NRL (US) in LEO that was launched on Tue, 09 Mar 1965 UTC via a THOR SLV-2 AGENA D launch vehicle from the Air Force Western Test Range (AFWTR). Payload-class satellites include a variety of spacecraft equipped with specific instruments for various scientific and technological missions. These include communications satellites like Starlink; space stations such as the ISS; scientific satellites like the Hubble; Earth observation satellites from companies like Planet Labs, Umbra, and HawkEye 360; GPS; miniature CubeSats for education and research; and military/defense satellites.

Loading next visibility...
Identifier
1272, 1965-016H
Orbit
LEO
Last TLE update
16 hours ago
Origin
Manufacturer
NRL
Mission
Defense Calibration
Bus & Motor
NRL 9", Unknown motor
Mass
4 kg wet, 4 kg dry
Launch date (UTC)
1965-03-09 (60 years ago)
Launch vehicle
THOR SLV-2 AGENA D
Launch site
Air Force Western Test Range (AFWTR)
Object type
Payload
Rocket body
Debris
Shape & HBR
Sphere + 12 Rod, 15.2 m
Radar Cross Section
0.031 m², Medium (>0.1 m² and < 1m²)

Expand to show TLE details & history

TLE from 16 hours ago
0 PORCUPINE 1
1 01272U 65016H   25181.67323711  .00000001  00000-0  39727-4 0  9990
2 01272  70.0802 276.3749 0024084 228.1563 131.7487 13.94485545 67376
Epoch: 2025-06-30T16:09Z
TLE epoch observation values (Epoch: 2025-06-30T16:09:27.686Z)
Latitude
Longitude
115.02987°
Altitude
926.987 km
Speed
7.383 km/s
True Right ascension
18h 25m 29s
True Declination
0° 00' 00"
Sunlit
Object was in full shadow at epoch
Visualization orbit readout
Latitude
0.70653°
Longitude
-66.67151°
Altitude
903.433 km
Speed
7.407 km/s
Apparent Right ascension
07h 02m 44s
Apparent Declination
-18° 34' 51"
Sunlit
Object is in daylight
Visualization observer readout
Local Sidereal Time
20:08:41
Azimuth
38.455° NE
Elevation
-64.364°
Doppler factor
1
Orbital elements
Apogee altitude
928.545 km
Perigee altitude
893.435 km
Semi-major axis
7,289.127 km
Eccentricity
0.00241
Inclination
70.0802°
RAAN
276.3749°
Arg. of periapsis
228.1563°
True anomaly
Unknown
Mean anomaly
131.7487°
Eccentric anomaly
Unknown
Mean motion
3.48763 °/min
Orbital period
103.22 mins
BSTAR
0.000039727
Loading maneuver chart data...
Loading SW <> Apogee altitude chart data...
Loading historical data...
Loading historical data...
Loading historical data...
Loading historical data...
Loading historical data...
Loading historical data...
Loading historical data...

PORCUPINE 1 Visibility forecast

Observer location: undefined°, undefined°

Span
Click to sort rows by Start time (UTC) header in descending order
Start Az.
Max El. time (UTC)
Max El. Az.
Max El.
End time (UTC)
End Az.
7 mins2025-07-01 09:34:33.895Z276.923° WNW2025-07-01 09:37:33.895Z307.801° NW15.967°2025-07-01 09:41:33.895Z350.052° N
10 mins2025-07-01 16:49:33.895Z349.217° N2025-07-01 16:54:33.895Z75.717° E37.719°2025-07-01 16:59:33.895Z135.852° SSE
7 mins2025-07-01 18:36:33.895Z295.195° NW2025-07-01 18:39:33.895Z256.514° W21.618°2025-07-01 18:43:33.895Z210.88° SW
6 mins2025-07-02 06:10:33.895Z126.014° SE2025-07-02 06:12:33.895Z103.156° ESE17.17°2025-07-02 06:16:33.895Z60.655° ENE
10 mins2025-07-02 07:53:33.895Z217.233° SW2025-07-02 07:57:33.895Z273.801° WNW42.236°2025-07-02 08:03:33.895Z18.631° NNE
|